FW2255 Weather Reports


time (UTC)temp
F
wind
direction
speed
knots
gust
knots
rain 1hr
in
rain 24hr
in
rain mn
in
humidity
%
barometer
mb
20260504215556 75 156 0.9 2.6 0.00 0.00 0.00 28 1010.0
20260504215055 75 155 0.9 2.6 0.00 0.00 0.00 30 1010.0
20260504214602 75 155 0.9 4.3 0.00 0.00 0.00 29 1010.0
20260504214055 74 155 0.9 4.3 0.00 0.00 0.00 29 1010.1
20260504213555 74 155 1.7 4.3 0.00 0.00 0.00 27 1010.1
20260504213105 74 155 0.9 5.2 0.00 0.00 0.00 29 1010.2
20260504212555 74 154 0.9 5.2 0.00 0.00 0.00 27 1010.2
20260504212059 74 150 1.7 5.2 0.00 0.00 0.00 29 1010.2
20260504211604 74 161 3.5 5.2 0.00 0.00 0.00 28 1010.3
20260504211055 74 157 2.6 4.3 0.00 0.00 0.00 28 1010.2
20260504210555 74 167 0.9 4.3 0.00 0.00 0.00 29 1010.2
20260504210104 74 146 2.6 5.2 0.00 0.00 0.00 27 1010.2
20260504205653 74 161 2.6 7.0 0.00 0.00 0.00 30 1010.2
20260504205058 74 162 2.6 7.0 0.00 0.00 0.00 27 1010.1
20260504204639 75 161 2.6 6.1 0.00 0.00 0.00 28 1010.3
20260504204055 74 153 2.6 6.1 0.00 0.00 0.00 27 1010.3
20260504203555 74 144 2.6 5.2 0.00 0.00 0.00 27 1010.3
20260504203059 74 152 1.7 6.1 0.00 0.00 0.00 25 1010.1
20260504202555 75 156 2.6 7.0 0.00 0.00 0.00 26 1010.3
20260504202056 75 155 3.5 7.0 0.00 0.00 0.00 28 1010.3
20260504201602 75 146 1.7 5.2 0.00 0.00 0.00 25 1010.4
20260504201055 75 148 2.6 5.2 0.00 0.00 0.00 27 1010.3
20260504200555 75 155 1.7 5.2 0.00 0.00 0.00 26 1010.5
20260504200057 75 154 0.9 4.3 0.00 0.00 0.00 24 1010.5
20260504195555 76 154 1.7 4.3 0.00 0.00 0.00 26 1010.6
20260504195058 76 149 0.0 5.2 0.00 0.00 0.00 25 1010.7
20260504194558 76 149 0.9 5.2 0.00 0.00 0.00 25 1010.7
20260504194055 76 148 1.7 6.1 0.00 0.00 0.00 24 1010.8
20260504193559 76 0 0.9 6.1 0.00 0.00 0.00 20 1010.8
20260504193056 76 182 1.7 5.2 0.00 0.00 0.00 24 1011.1
20260504192555 76 157 1.7 4.3 0.00 0.00 0.00 26 1011.0
20260504192055 75 0 0.9 4.3 0.00 0.00 0.00 22 1011.0
20260504191559 76 167 1.7 4.3 0.00 0.00 0.00 23 1011.1
20260504191055 76 169 0.9 3.5 0.00 0.00 0.00 23 1011.1
20260504190554 75 169 0.0 4.3 0.00 0.00 0.00 25 1011.3
20260504185555 75 144 0.9 4.3 0.00 0.00 0.00 26 1011.5
20260504185055 75 144 1.7 4.3 0.00 0.00 0.00 24 1011.6
20260504184605 75 148 0.9 5.2 0.00 0.00 0.00 28 1011.6
20260504184056 75 148 1.7 5.2 0.00 0.00 0.00 27 1011.8
20260504183556 75 175 0.9 4.3 0.00 0.00 0.00 26 1011.9
20260504183101 75 0 0.9 4.3 0.00 0.00 0.00 26 1012.0
20260504182558 75 165 1.7 4.3 0.00 0.00 0.00 27 1012.1
20260504182055 75 182 0.9 4.3 0.00 0.00 0.00 26 1012.2
20260504181559 74 149 1.7 4.3 0.00 0.00 0.00 25 1012.2
20260504181055 74 158 0.0 4.3 0.00 0.00 0.00 25 1012.3
20260504180557 74 158 1.7 4.3 0.00 0.00 0.00 26 1012.3
20260504180055 73 158 1.7 4.3 0.00 0.00 0.00 28 1012.4
20260504175557 73 150 0.9 4.3 0.00 0.00 0.00 28 1012.4
20260504175055 73 148 0.0 5.2 0.00 0.00 0.00 26 1012.5
20260504174555 73 148 1.7 5.2 0.00 0.00 0.00 26 1012.6
20260504174055 73 158 2.6 5.2 0.00 0.00 0.00 28 1012.7
20260504173555 72 158 1.7 4.3 0.00 0.00 0.00 28 1012.6
20260504173056 72 160 2.6 4.3 0.00 0.00 0.00 28 1012.8
20260504172554 72 147 1.7 4.3 0.00 0.00 0.00 28 1012.9
20260504172055 72 144 2.6 4.3 0.00 0.00 0.00 27 1012.9
20260504171555 71 147 1.7 5.2 0.00 0.00 0.00 29 1013.0
20260504171056 71 140 1.7 5.2 0.00 0.00 0.00 26 1013.0
20260504170555 71 156 1.7 5.2 0.00 0.00 0.00 29 1013.2
20260504151055 65 159 1.7 3.5 0.00 0.00 0.00 36 1014.4
20260504150557 65 159 0.9 3.5 0.00 0.00 0.00 38 1014.5
20260504141054 60 0 0.9 2.6 0.00 0.00 0.00 44 1014.7
20260504140555 60 0 0.0 2.6 0.00 0.00 0.00 47 1014.7
20260504130559 53 0 0.0 0.0 0.00 0.00 0.00 48 1015.4
20260504110554 48 0 0.0 0.0 0.00 0.00 0.00 57 1015.7
20260504100554 49 0 0.0 0.0 0.00 0.00 0.00 52 1015.5
20260504081555 51 0 0.0 0.0 0.00 0.00 0.00 48 1016.0
20260504081054 51 0 0.0 0.0 0.00 0.00 0.00 49 1015.9
20260504080554 51 0 0.0 0.0 0.00 0.00 0.00 49 1016.0
20260504050557 47 0 0.0 0.0 0.00 0.00 0.00 57 1016.1
20260504045556 47 0 0.0 0.0 0.00 0.00 0.00 57 1016.1
20260504045056 47 0 0.0 0.0 0.00 0.00 0.00 58 1016.2
20260504044603 47 0 0.0 0.0 0.00 0.00 0.00 57 1016.2
20260504044056 47 0 0.0 0.0 0.00 0.00 0.00 56 1016.2
20260504043556 47 0 0.0 0.0 0.00 0.00 0.00 56 1016.1
20260504043057 47 0 0.0 0.0 0.00 0.00 0.00 56 1016.1
20260504042556 47 0 0.0 0.0 0.00 0.00 0.00 56 1016.0
20260504042055 46 0 0.0 0.0 0.00 0.00 0.00 56 1015.9
20260504041556 46 0 0.0 0.0 0.00 0.00 0.00 56 1015.9
20260504041055 46 0 0.0 0.0 0.00 0.00 0.00 56 1015.9
20260504040600 46 0 0.0 0.0 0.00 0.00 0.00 55 1015.9
20260504040058 46 0 0.0 0.0 0.00 0.00 0.00 55 1015.9
20260504035556 46 0 0.0 0.0 0.00 0.00 0.00 54 1016.1
20260504035056 47 0 0.0 0.0 0.00 0.00 0.00 54 1016.2
20260504034611 47 0 0.0 0.0 0.00 0.00 0.00 53 1016.2
20260504034056 47 0 0.0 0.0 0.00 0.00 0.00 53 1016.1
20260504033556 47 0 0.0 0.0 0.00 0.00 0.00 52 1016.1
20260504033100 47 0 0.0 0.0 0.00 0.00 0.00 52 1016.0
20260504032556 47 0 0.0 0.0 0.00 0.00 0.00 51 1016.0
20260504032056 48 0 0.0 0.0 0.00 0.00 0.00 51 1016.0
20260504031603 48 0 0.0 0.0 0.00 0.00 0.00 50 1015.9
20260504031056 48 0 0.0 0.0 0.00 0.00 0.00 49 1016.0
20260504030556 48 0 0.0 0.0 0.00 0.00 0.00 49 1016.1
20260504025556 48 0 0.0 0.0 0.00 0.00 0.00 47 1015.9
20260504025056 48 0 0.0 0.0 0.00 0.00 0.00 47 1015.9
20260504024608 48 0 0.0 0.0 0.00 0.00 0.00 46 1015.9
20260504024055 48 0 0.0 0.0 0.00 0.00 0.00 45 1015.8
20260504023556 49 0 0.0 0.0 0.00 0.00 0.00 45 1015.9
20260504023100 49 0 0.0 0.0 0.00 0.00 0.00 44 1015.9
20260504022556 49 0 0.0 0.0 0.00 0.00 0.00 44 1015.9
20260504022056 49 0 0.0 0.0 0.00 0.00 0.00 43 1015.9
20260504021557 49 0 0.0 0.0 0.00 0.00 0.00 43 1015.8
20260504021057 49 0 0.0 0.0 0.00 0.00 0.00 43 1015.7
20260504020557 49 0 0.0 0.0 0.00 0.00 0.00 42 1015.8
20260504020056 50 0 0.0 0.0 0.00 0.00 0.00 41 1015.8
20260504015556 50 0 0.0 0.0 0.00 0.00 0.00 41 1015.7
20260504015056 50 0 0.0 0.0 0.00 0.00 0.00 40 1015.7
20260504014606 50 0 0.0 0.0 0.00 0.00 0.00 40 1015.6
20260504014055 50 0 0.0 0.0 0.00 0.00 0.00 40 1015.5
20260504013557 51 0 0.0 0.0 0.00 0.00 0.00 39 1015.5
20260504013056 51 0 0.0 0.0 0.00 0.00 0.00 40 1015.4
20260504012556 51 0 0.0 0.9 0.00 0.00 0.00 40 1015.4
20260504012056 51 0 0.0 0.9 0.00 0.00 0.00 39 1015.2
20260504011559 52 0 0.0 0.0 0.00 0.00 0.00 39 1015.3
20260504011055 52 0 0.0 0.0 0.00 0.00 0.00 38 1015.1
20260504010555 52 0 0.0 0.0 0.00 0.00 0.00 38 1015.1
20260504010100 53 0 0.0 0.0 0.00 0.00 0.00 37 1015.1
20260504005555 53 0 0.0 0.0 0.00 0.00 0.00 36 1015.1
20260504005055 53 0 0.0 0.0 0.00 0.00 0.00 36 1015.1
20260504004558 54 0 0.0 0.0 0.00 0.00 0.00 36 1015.0
20260504004056 54 0 0.0 0.0 0.00 0.00 0.00 35 1015.1
20260504003558 55 0 0.0 0.0 0.00 0.00 0.00 35 1015.0
20260504003100 55 0 0.0 0.0 0.00 0.00 0.00 37 1014.9
20260504002556 56 0 0.0 0.0 0.00 0.00 0.00 31 1014.9
20260504002057 56 0 0.0 0.0 0.00 0.00 0.00 30 1014.9
20260504001604 56 0 0.0 0.0 0.00 0.00 0.00 30 1014.9
20260504001057 57 0 0.0 0.0 0.00 0.00 0.00 29 1014.9
20260504000555 57 0 0.0 0.0 0.00 0.00 0.00 30 1014.8
20260504000058 58 0 0.0 0.0 0.00 0.00 0.00 31 1014.7
20260503235555 58 0 0.0 0.0 0.00 0.00 0.00 32 1014.7
20260503235057 59 0 0.0 0.0 0.00 0.00 0.00 30 1014.7
20260503234556 59 0 0.0 0.0 0.00 0.00 0.00 28 1014.7
20260503234056 60 0 0.0 0.0 0.00 0.00 0.00 27 1014.7
20260503233556 60 0 0.0 0.0 0.00 0.00 0.00 27 1014.6
20260503233054 60 0 0.0 0.0 0.00 0.00 0.00 27 1014.6
20260503232555 60 0 0.0 0.0 0.00 0.00 0.00 26 1014.5
20260503232058 61 0 0.0 0.9 0.00 0.00 0.00 28 1014.5
20260503231555 61 0 0.0 1.7 0.00 0.00 0.00 28 1014.5
20260503231056 61 0 0.0 1.7 0.00 0.00 0.00 25 1014.5
20260503230556 61 0 0.0 0.0 0.00 0.00 0.00 24 1014.5
20260503230058 61 0 0.0 0.0 0.00 0.00 0.00 28 1014.4
20260503225556 62 0 0.0 1.7 0.00 0.00 0.00 29 1014.4
20260503225056 62 0 0.0 1.7 0.00 0.00 0.00 29 1014.5
20260503224554 62 0 0.0 1.7 0.00 0.00 0.00 26 1014.5
20260503224056 62 0 0.0 1.7 0.00 0.00 0.00 25 1014.5
20260503223555 63 0 0.0 1.7 0.00 0.00 0.00 24 1014.5
20260503223057 63 306 0.9 1.7 0.00 0.00 0.00 24 1014.4
20260503222555 63 298 0.0 1.7 0.00 0.00 0.00 26 1014.4
20260503222056 63 0 0.0 1.7 0.00 0.00 0.00 20 1014.5
20260503221558 63 0 0.0 3.5 0.00 0.00 0.00 22 1014.6
20260503221055 64 0 0.0 3.5 0.00 0.00 0.00 17 1014.6
20260503220556 64 0 0.9 3.5 0.00 0.00 0.00 18 1014.6
20260503220059 63 0 0.0 3.5 0.00 0.00 0.00 19 1014.6